Location: Newark
(50.8922°N, 11.6094°E)
Time: 06:36:24
(UTC+00:00)

N. Korean satellite - Visible Passes

Search period start: 26 January 2020 00:00
Search period end: 05 February 2020 00:00
Orbit: 454 x 507 km, 97.2° (Epoch: 25 January)

Date Brightness Start Highest point End Pass type
(mag) Time Alt. Az. Time Alt. Az. Time Alt. Az.
26 Jan 6.4 05:17:22 10° NNE 05:20:56 85° WNW 05:24:33 10° SSW visible
27 Jan 7.6 04:51:55 10° NNE 04:55:24 48° E 04:58:55 10° S visible
27 Jan 9.7 17:06:35 10° SW 17:08:58 18° W 17:11:23 10° NW visible
28 Jan 8.9 04:26:45 10° NE 04:29:47 25° E 04:32:51 10° SSE visible
28 Jan 7.4 06:00:02 10° N 06:03:10 29° WNW 06:06:20 10° SW visible
28 Jan 8.5 16:40:10 10° SSW 16:43:17 33° W 16:46:28 10° NNW visible
29 Jan 9.8 04:02:04 10° NE 04:04:05 14° E 04:06:06 10° ESE visible
29 Jan 6.6 05:34:16 10° N 05:37:47 54° WNW 05:41:20 10° SSW visible
30 Jan 6.7 05:08:41 10° NNE 05:12:18 77° ESE 05:15:57 10° S visible
30 Jan 10.1 17:24:40 10° WSW 17:25:59 12° W 17:27:19 10° WNW visible
31 Jan 8.1 04:43:19 10° NNE 04:46:44 39° E 04:50:11 10° SSE visible
31 Jan 7.9 06:17:12 10° NNW 06:19:55 20° WNW 06:22:39 10° WSW visible
31 Jan 9.4 16:57:32 10° SW 17:00:14 22° W 17:03:00 10° NW visible
01 Feb 9.3 04:18:15 10° NE 04:21:05 21° E 04:23:56 10° SE visible
01 Feb 7.2 05:51:15 10° N 05:54:35 35° WNW 05:57:56 10° SW visible
01 Feb 8.1 16:31:18 10° S 16:34:34 41° W 16:37:54 10° NNW visible
02 Feb 10.1 03:53:56 10° ENE 03:55:20 12° E 03:56:45 10° ESE visible
02 Feb 6.5 05:25:32 10° N 05:29:09 68° WNW 05:32:47 10° SSW visible
03 Feb 7.1 05:00:01 10° NNE 05:03:39 61° ESE 05:07:17 10° S visible
03 Feb 9.9 17:15:13 10° SW 17:17:13 15° W 17:19:15 10° NW visible
04 Feb 8.5 04:34:43 10° NNE 04:38:02 32° E 04:41:23 10° SSE visible
04 Feb 7.7 06:08:19 10° N 06:11:20 24° WNW 06:14:21 10° WSW visible
04 Feb 9.1 16:48:30 10° SSW 16:51:29 27° W 16:54:32 10° NW visible
